Tacoma, WA
on Thursday, December 20, 2012

Thursday
Previous Day Next Day
Daily Summary
 ActualAverage (KSEA)Record (KSEA)
Temperature
Mean Temperature °F 40°F  
Max Temperature 46°F 45°F 57°F (1973)
Min Temperature 28°F 35°F 14°F (1990)
Degree Days
Heating Degree Days 28 25  
Month to date heating degree days 485  
Since 1 July heating degree days 1668  
Cooling Degree Days 0 0  
Month to date cooling degree days 0  
Year to date cooling degree days 189  
Moisture
Dew Point 36°F   
Average Humidity 95    
Maximum Humidity 100    
Minimum Humidity 81    
Precipitation
Precipitation 0.35 in 0.16 in 1.93 in (1955)
Month to date precipitation 3.52  
Year to date precipitation 35.66  
Snow
Snow 0.00 in in 3.00 in (2008)
Month to date snowfall  
Since 1 July snowfall  
Snow Depth in   
Wind
Wind Speed 7 mph   
Max Wind Speed 21 mph   
Max Gust Speed 25 mph   
Visibility 7 miles   
Events Fog , Rain   

Key: T is trace of precipitation, MM is missing value
Source: NWS Daily Summary
Time(PST)TemperatureDew PointHumidity Pressure Visibility Wind DirectionWind SpeedGust SpeedPrecipitationEvents Conditions
12:07 AM 41.0°F 41.0°F 100% 29.53 in 10.0 miles Variable 2.3 mph - N/A   Overcast
12:14 AM 41.0°F 41.0°F 100% 29.52 in 10.0 miles ESE 3.5 mph - N/A Rain Light Rain
12:28 AM 41.0°F 41.0°F 100% 29.51 in 10.0 miles SE 3.5 mph - N/A   Overcast
12:31 AM 41.0°F 41.0°F 100% 29.51 in 10.0 miles Variable 2.3 mph - N/A Rain Light Rain
12:40 AM 42.8°F 41.0°F 93% 29.51 in 10.0 miles South 4.6 mph - N/A   Overcast
12:46 AM 42.8°F 41.0°F 93% 29.51 in 10.0 miles SSE 8.1 mph - N/A Rain Light Rain
12:58 AM 42.8°F 40.8°F 93% 29.52 in 10.0 miles South 12.7 mph - 0.00 in Rain Light Rain
1:58 AM 44.4°F 41.0°F 88% 29.52 in 10.0 miles SSE 13.8 mph - 0.01 in Rain Light Rain
2:49 AM 44.6°F 41.0°F 87% 29.51 in 10.0 miles South 16.1 mph - N/A   Mostly Cloudy
2:58 AM 44.6°F 41.0°F 87% 29.53 in 10.0 miles South 17.3 mph - 0.01 in   Mostly Cloudy
3:42 AM 44.6°F 41.0°F 87% 29.53 in 10.0 miles South 17.3 mph - N/A Rain Light Rain
3:56 AM 46.4°F 41.0°F 81% 29.53 in 10.0 miles South 13.8 mph 25.3 mph N/A   Scattered Clouds
3:58 AM 45.7°F 40.5°F 82% 29.54 in 10.0 miles South 15.0 mph - 0.00 in   Scattered Clouds
4:04 AM 44.6°F 41.0°F 87% 29.52 in 10.0 miles South 13.8 mph - N/A Rain Light Rain
4:58 AM 43.7°F 41.2°F 91% 29.55 in 10.0 miles South 6.9 mph - 0.01 in Rain Light Rain
5:58 AM 43.0°F 40.8°F 92% 29.55 in 10.0 miles South 6.9 mph - 0.02 in Rain Light Rain
6:50 AM 42.8°F 41.0°F 93% 29.54 in 10.0 miles SW 4.6 mph - N/A   Overcast
6:54 AM 41.0°F 41.0°F 100% 29.54 in 10.0 miles WSW 4.6 mph - N/A Rain Light Rain
6:58 AM 41.9°F 40.5°F 95% 29.56 in 10.0 miles WSW 4.6 mph - 0.03 in Rain Light Rain
7:08 AM 41.0°F 41.0°F 100% 29.54 in 10.0 miles SW 5.8 mph - N/A Rain Light Rain
7:13 AM 41.0°F 41.0°F 100% 29.55 in 10.0 miles WSW 5.8 mph - N/A Rain Light Rain
7:58 AM 41.4°F 40.3°F 96% 29.57 in 9.0 miles SW 6.9 mph - 0.05 in Rain Light Rain
8:58 AM 40.8°F 39.7°F 96% 29.60 in 10.0 miles South 10.4 mph - 0.02 in Rain Light Rain
9:48 AM 41.0°F 37.4°F 87% 29.60 in 6.0 miles South 20.7 mph 23.0 mph N/A   Overcast
9:58 AM 40.6°F 37.8°F 89% 29.62 in 8.0 miles South 12.7 mph - 0.07 in   Overcast
10:18 AM 41.0°F 37.4°F 87% 29.61 in 10.0 miles South 15.0 mph - N/A   Overcast
10:58 AM 40.3°F 37.9°F 91% 29.65 in 10.0 miles South 12.7 mph - 0.04 in Rain Light Rain
11:58 AM 39.9°F 38.1°F 93% 29.66 in 10.0 miles South 13.8 mph - 0.05 in   Overcast
12:58 PM 40.1°F 37.8°F 91% 29.70 in 10.0 miles South 15.0 mph - 0.03 in Rain Light Rain
1:19 PM 39.2°F 37.4°F 93% 29.67 in 10.0 miles SSE 8.1 mph - N/A   Mostly Cloudy
1:58 PM 40.1°F 38.5°F 94% 29.71 in 10.0 miles South 5.8 mph - 0.01 in   Mostly Cloudy
2:58 PM 41.4°F 38.5°F 89% 29.75 in 10.0 miles South 10.4 mph - N/A   Scattered Clouds
3:58 PM 39.7°F 36.1°F 87% 29.77 in 10.0 miles South 12.7 mph - N/A   Partly Cloudy
4:58 PM 37.2°F 34.9°F 91% 29.79 in 10.0 miles South 10.4 mph - N/A   Partly Cloudy
5:58 PM 35.4°F 33.4°F 92% 29.81 in 10.0 miles South 5.8 mph - N/A   Clear
6:58 PM 34.3°F 33.1°F 95% 29.82 in 10.0 miles SSW 2.3 mph - N/A   Mostly Cloudy
7:58 PM 32.9°F 31.6°F 95% 29.82 in 10.0 miles Calm Calm - N/A   Clear
8:58 PM 33.6°F 32.7°F 96% 29.83 in 10.0 miles Variable 1.2 mph - N/A   Clear
9:13 PM 32.0°F 32.0°F 100% 29.81 in 8.0 miles ESE 2.3 mph - N/A   Clear
9:18 PM 32.0°F 32.0°F 100% 29.81 in 5.0 miles ESE 3.5 mph - N/A   Clear
9:28 PM 32.0°F 30.2°F 93% 29.81 in 2.5 miles SE 1.2 mph - N/A   Clear
9:33 PM 32.0°F 32.0°F 100% 29.81 in 1.0 miles Variable 1.2 mph - N/A   Clear
9:38 PM 32.0°F 32.0°F 100% 29.81 in 0.8 miles SSE 2.3 mph - N/A   Clear
9:43 PM 30.2°F 30.2°F 100% 29.81 in 1.0 miles South 2.3 mph - N/A   Clear
9:48 PM 30.2°F 28.4°F 93% 29.81 in 3.0 miles NE 1.2 mph - N/A   Clear
9:58 PM 28.4°F 27.9°F 98% 29.83 in 4.0 miles SE 2.3 mph - N/A   Clear
10:03 PM 28.4°F 28.4°F 100% 29.81 in 1.0 miles ESE 2.3 mph - N/A   Clear
10:08 PM 28.4°F 28.4°F 100% 29.81 in 0.2 miles ESE 3.5 mph - N/A Fog Light Freezing Fog
10:13 PM 30.2°F 30.2°F 100% 29.81 in 0.2 miles East 3.5 mph - N/A Fog Light Freezing Fog
10:18 PM 30.2°F 30.2°F 100% 29.81 in 0.8 miles East 3.5 mph - N/A   Clear
10:23 PM 30.2°F 30.2°F 100% 29.82 in 2.0 miles East 2.3 mph - N/A   Clear
10:28 PM 30.2°F 30.2°F 100% 29.82 in 6.0 miles East 4.6 mph - N/A   Clear
10:53 PM 30.2°F 30.2°F 100% 29.82 in 1.8 miles East 2.3 mph - N/A   Clear
10:58 PM 30.2°F 30.2°F 100% 29.84 in 2.0 miles East 2.3 mph - N/A   Clear
11:03 PM 30.2°F 30.2°F 100% 29.82 in 2.5 miles ESE 3.5 mph - N/A   Clear
11:08 PM 30.2°F 30.2°F 100% 29.82 in 3.0 miles ESE 3.5 mph - N/A   Clear
11:48 PM 28.4°F 28.4°F 100% 29.82 in 2.0 miles ESE 2.3 mph - N/A   Clear
11:53 PM 28.4°F 28.4°F 100% 29.82 in 1.0 miles Calm Calm - N/A   Clear
11:58 PM 28.6°F 28.4°F 99% 29.84 in 0.8 miles Calm Calm - N/A   Clear
Moon Phase
Dec. 20 Dec. 28 Jan. 04 Jan. 11 Jan. 18
Sunrise:07:53 AM (PST) Moon Rise:12:02 PM (PST)
Sunset:04:22 PM (PST) Moon Set:12:24 AM (PST)

Copyright © 2014 The Weather Underground, Inc.